Theta_e
298 292 291 294 302 308 312 317 315 324 328 326 327 334 341 347 351 353 356 357 356 362 362 362 360 359 359 358 358 359 359 359
294 293 297 299 301 307 308 310 316 326 323 330 336 335 345 351 351 353 355 356 359 361 362 361 361 360 359 359 358 359 360 360
291 294 298 303 305 308 307 309 311 327 322 325 333 339 349 349 350 349 352 355 359 360 361 361 361 360 359 359 358 358 360 359
289 294 299 302 304 305 307 310 313 325 323 324 333 346 348 349 347 350 350 353 358 361 361 360 360 359 359 358 358 359 359 359
290 295 297 302 304 303 307 312 316 327 320 323 330 348 350 349 347 349 353 356 357 359 360 360 359 358 358 358 358 358 358 358
292 293 295 304 304 305 310 312 319 328 324 322 331 349 347 348 349 349 352 353 353 356 357 354 355 359 358 358 358 358 358 357
292 294 297 304 302 309 315 313 313 318 325 332 345 346 344 345 346 347 350 351 351 353 353 353 353 356 358 358 358 358 357 357
297 299 298 303 306 309 311 310 310 315 336 338 337 340 341 340 340 341 343 348 349 351 351 352 355 353 352 353 352 351 351 351
298 302 302 302 303 310 307 304 310 314 333 335 335 335 337 338 340 340 341 347 348 349 350 350 352 350 352 351 352 348 348 346
299 301 301 302 304 306 310 307 315 326 322 331 334 333 336 337 337 337 337 340 343 343 345 345 349 350 349 349 349 348 345 344
300 300 298 304 302 305 307 311 315 319 325 326 329 333 337 339 339 337 336 337 337 339 337 338 344 344 344 345 346 343 343 344
297 297 297 298 299 306 307 312 312 316 324 325 327 327 332 336 337 337 338 338 341 338 337 337 339 338 338 339 340 341 340 342
296 295 295 300 299 302 308 310 309 311 317 326 324 325 325 329 333 338 340 340 341 338 339 342 338 336 336 337 338 337 338 339
291 295 296 300 292 299 309 308 307 310 312 319 322 332 328 328 330 336 339 339 342 344 339 340 343 342 337 339 338 337 337 337
289 294 296 297 291 300 307 307 306 308 310 312 315 317 319 331 332 335 338 339 341 341 340 340 342 344 344 340 341 340 339 340
287 292 295 294 295 301 306 307 306 306 308 310 313 314 321 331 335 336 336 338 339 341 342 342 342 340 345 346 343 344 343 343
288 293 295 293 296 301 305 305 305 305 306 309 312 316 319 332 333 332 334 336 336 339 341 341 334 334 338 342 346 345 345 347
289 293 294 293 295 301 303 303 304 305 305 307 311 313 318 324 333 332 330 331 334 335 337 338 333 335 340 342 345 349 350 347
288 297 298 296 293 296 302 304 305 306 307 309 309 310 314 322 329 333 327 329 334 334 335 335 331 334 339 344 346 344 345 348
292 292 287 297 284 292 297 299 302 303 304 306 309 311 311 316 323 328 329 329 331 332 333 331 330 333 335 336 339 343 344 344
Wind_Speed
4 4 7 5 5 4 4 7 7 5 3 2 5 3 7 2 17 18 13 13 14 17 17 18 17 16 15 14 15 15 15 15
4 9 8 6 3 1 2 7 7 5 6 4 7 3 8 16 17 18 14 13 17 21 17 17 17 16 15 14 14 14 14 13
3 8 5 1 1 4 8 5 10 8 6 7 3 2 10 16 16 18 13 11 15 22 20 17 17 17 17 16 14 14 13 12
6 6 4 2 3 2 3 8 10 5 4 4 3 10 13 15 11 9 12 5 6 13 17 18 17 16 15 16 15 14 13 12
4 6 5 2 2 4 4 6 3 1 3 2 2 12 14 13 11 8 7 7 8 8 10 14 15 14 12 12 12 12 12 11
6 6 6 3 1 4 5 3 6 4 3 3 3 13 13 10 10 8 7 5 7 8 6 5 6 13 13 11 11 10 10 10
7 8 4 1 3 5 4 3 4 2 2 9 12 13 14 12 7 7 7 5 5 7 8 5 5 7 8 11 10 9 7 7
6 5 4 5 3 5 6 7 3 4 9 18 17 15 11 8 6 4 4 8 5 8 8 6 4 4 4 4 4 4 5 6
2 7 4 4 4 4 4 4 2 3 3 13 17 18 16 11 4 6 5 4 6 9 6 6 4 3 2 1 2 1 3 3
7 3 2 4 3 3 3 5 2 5 3 8 14 12 14 13 11 9 6 4 5 4 6 6 4 3 3 5 4 4 3 4
6 7 3 4 6 3 5 2 7 6 9 8 12 10 7 10 11 5 6 4 5 8 7 5 5 4 3 4 3 4 4 5
6 6 5 6 6 5 3 7 5 10 3 7 8 6 7 8 4 5 3 3 3 8 7 7 5 6 5 4 4 3 3 5
16 5 5 7 8 9 7 7 7 7 7 1 6 9 10 10 8 6 4 7 9 10 6 7 9 7 5 6 6 5 6 6
6 9 5 9 20 7 8 9 9 7 7 8 4 9 7 8 11 13 9 12 10 9 14 9 8 9 6 5 6 7 6 6
1 8 6 12 2 5 8 6 9 8 6 7 6 7 8 6 12 18 17 9 6 9 11 14 11 6 10 10 7 8 7 7
9 6 8 10 4 4 3 5 6 9 7 6 9 10 8 7 10 11 12 11 12 11 11 10 6 2 2 1 7 3 5 6
7 9 7 8 6 9 8 5 7 7 8 7 6 8 6 7 4 10 7 12 11 13 16 6 3 3 2 3 4 8 9 9
4 7 8 4 8 9 9 7 7 9 9 10 6 9 6 8 7 9 9 9 9 10 10 5 2 2 3 2 2 4 5 8
5 3 3 3 6 5 6 4 5 7 8 8 11 11 9 7 9 10 11 14 16 14 11 7 4 1 2 1 2 4 5 2
5 4 4 3 6 4 4 8 9 11 9 8 9 9 9 14 11 13 17 12 10 11 12 8 5 3 6 6 5 3 2 1
Wind_Direction
121 145 203 216 194 117 35 300 272 316 12 200 240 230 148 205 150 144 158 164 161 166 158 152 145 143 140 141 138 137 137 139
116 224 255 178 254 189 291 291 232 202 263 269 229 38 134 134 146 148 159 168 167 160 161 154 146 146 145 145 146 144 144 145
197 246 251 185 330 312 309 248 246 173 233 255 29 137 118 139 156 154 160 173 170 164 160 156 151 152 153 152 154 150 150 150
205 244 286 315 296 285 273 288 298 156 152 249 342 100 139 138 152 151 145 139 170 167 154 154 155 159 159 156 156 156 153 154
203 236 291 245 220 281 282 267 24 80 251 298 54 118 123 137 129 130 126 135 151 162 156 156 155 155 157 156 154 155 151 151
212 183 256 246 304 279 240 273 308 15 292 313 165 126 110 96 99 114 116 123 146 143 153 121 143 153 153 155 156 154 152 155
197 151 230 277 13 298 272 220 16 17 332 304 126 117 107 102 96 110 104 112 125 131 157 110 100 152 149 158 156 150 151 162
190 185 172 289 48 311 15 333 30 326 44 66 67 65 71 52 68 53 114 147 134 139 148 152 147 148 103 151 130 141 159 174
235 206 175 268 299 266 6 26 332 340 54 75 72 70 64 37 101 104 114 146 153 141 126 148 129 140 134 106 157 131 170 167
210 204 189 206 244 253 138 152 111 101 85 97 71 76 79 67 47 70 91 116 120 97 134 121 125 142 173 193 192 205 181 167
219 252 221 221 265 268 126 141 120 69 82 109 117 101 88 85 82 36 66 82 103 124 121 130 131 143 170 200 197 186 184 198
254 253 254 189 252 167 124 129 111 102 92 120 142 115 107 120 166 107 123 166 128 127 144 150 162 181 177 182 202 208 205 210
234 237 249 159 248 213 193 123 112 125 128 158 161 171 168 140 184 156 165 201 154 144 136 137 166 183 188 189 178 202 215 211
257 194 246 156 252 222 225 141 143 126 143 144 210 222 204 188 172 174 186 193 186 180 155 161 169 167 181 199 196 202 201 194
219 193 177 198 202 198 215 206 151 157 180 161 187 250 252 209 185 184 188 208 207 197 178 171 174 190 172 186 207 217 185 185
178 190 187 232 225 262 225 188 196 165 181 217 170 211 240 221 163 184 201 209 209 210 207 196 185 178 64 287 161 207 243 207
184 209 173 221 194 216 222 217 236 190 175 199 195 215 221 248 172 159 186 201 203 208 211 191 163 157 123 131 182 209 223 215
189 202 166 206 238 224 222 231 196 234 179 186 166 170 197 191 208 204 191 207 223 223 225 199 146 78 89 125 236 229 210 206
142 159 80 130 285 206 257 232 262 232 234 188 182 182 184 210 202 217 212 211 212 219 231 221 185 136 92 43 264 218 199 163
152 107 191 115 267 270 220 264 226 241 238 221 199 187 185 184 196 213 219 214 230 231 219 209 167 195 193 211 206 220 274 57